Charlevoix, MI

1:38 AM EDT on October 18, 2017 (GMT -0400)
Charlevoix Municipal

Weather History for KCVX - July, 2012

Change the Weather History Date:

Sunday, July 15, 2012

  Actual Average Record
Temperature  
Mean Temperature 72 °F -  
Max Temperature 79 °F 78 °F 89 °F (2006)
Min Temperature 66 °F 67 °F 50 °F (2015)
Cooling Degree Days 8    
Growing Degree Days 22 (Base 50)    
Moisture  
Dew Point 68 °F    
Average Humidity 84    
Maximum Humidity 95    
Minimum Humidity 69    
Precipitation  
Precipitation 0.00 in - - ()
Sea Level Pressure  
Sea Level Pressure 30.01 in    
Wind  
Wind Speed 5 mph (WSW)    
Max Wind Speed 10 mph    
Max Gust Speed -    
Visibility 9 miles    
Events Rain    
Averages and records for this station are not official NWS values.
T = Trace of Precipitation, MM = Missing Value Source: NWS Daily Summary

Daily Weather History Graph

Daily Weather History Graph

Search for Another Location

Airport or City:

Trip Planner

Search our weather history database for the weather conditions in past years. The results will help you decide how hot, cold, wet, or windy it might be!

Date:

Astronomy

Jul. 15, 2012 Rise Set
Actual Time 6:08 AM EDT 9:25 PM EDT
Civil Twilight 5:31 AM EDT 10:01 PM EDT
Nautical Twilight 4:44 AM EDT 10:48 PM EDT
Astronomical Twilight 3:45 AM EDT 11:46 PM EDT
Moon 3:04 AM EDT (7/15) 6:41 PM EDT (7/15)
Length of Visible Light 16h 29m
Length of Day
15h 17m
Waning Crescent, 12% of the Moon is Illuminated
Jul 15
Waning Crescent
Jul 19
New
Jul 26
First Quarter
Aug 1
Full
Aug 9
Last Quarter

Hourly Weather History & Observations

Time (EDT) Temp. Dew Point Humidity Pressure Visibility Wind Dir Wind Speed Gust Speed Precip Events Conditions
12:14 AM 72.5 °F 64.4 °F 76% 29.98 in 10.0 mi SE 4.6 mph - N/A   Clear
12:35 AM 72.5 °F 64.6 °F 76% 29.98 in 10.0 mi SE 3.5 mph - N/A   Clear
12:54 AM 72.0 °F 64.8 °F 78% 29.98 in 10.0 mi SE 4.6 mph - N/A   Scattered Clouds
1:14 AM 70.7 °F 64.6 °F 81% 29.98 in 10.0 mi Calm Calm - N/A   Mostly Cloudy
1:35 AM 72.1 °F 64.9 °F 78% 29.98 in 10.0 mi Calm Calm - N/A   Overcast
1:54 AM 72.5 °F 66.9 °F 83% 30.00 in 10.0 mi WSW 9.2 mph - N/A   Overcast
2:14 AM 71.2 °F 68.2 °F 90% 30.02 in 7.0 mi NW 4.6 mph - N/A Rain Light Rain
2:54 AM 70.0 °F 66.2 °F 88% 30.00 in 5.0 mi North 10.4 mph - N/A Rain Heavy Rain
3:14 AM 68.9 °F 65.7 °F 89% 29.99 in 10.0 mi SE 4.6 mph - N/A   Overcast
3:34 AM 68.0 °F 66.2 °F 94% 29.99 in 2.5 mi ESE 3.5 mph - N/A Rain Heavy Rain
3:54 AM 68.5 °F 66.4 °F 93% 29.99 in 7.0 mi East 6.9 mph - N/A Rain Light Rain
4:14 AM 68.7 °F 66.4 °F 92% 29.97 in 10.0 mi SE 3.5 mph - N/A Rain Rain
4:34 AM 68.2 °F 65.3 °F 90% 29.97 in 5.0 mi SE 6.9 mph - N/A Rain Light Rain
4:54 AM 67.1 °F 63.9 °F 89% 29.96 in 4.0 mi SSE 8.1 mph - N/A Rain Rain
5:14 AM 66.6 °F 63.9 °F 91% 29.97 in 10.0 mi SE 6.9 mph - N/A   Mostly Cloudy
5:34 AM 66.7 °F 64.4 °F 92% 29.97 in 10.0 mi ESE 4.6 mph - N/A   Overcast
5:54 AM 67.1 °F 65.1 °F 93% 29.97 in 10.0 mi ESE 3.5 mph - N/A   Overcast
6:14 AM 67.5 °F 65.5 °F 93% 30.00 in 10.0 mi North 5.8 mph - N/A Rain Light Rain
6:34 AM 67.5 °F 64.8 °F 91% 29.99 in 5.0 mi East 8.1 mph - N/A Rain Heavy Rain
6:54 AM 67.1 °F 65.1 °F 93% 30.00 in 10.0 mi SSE 5.8 mph - N/A Rain Light Rain
7:14 AM 67.1 °F 65.3 °F 94% 29.99 in 10.0 mi ESE 5.8 mph - N/A Rain Light Rain
7:35 AM 67.1 °F 65.3 °F 94% 30.00 in 10.0 mi South 4.6 mph - N/A Rain Light Rain
7:54 AM 67.3 °F 65.5 °F 94% 29.99 in 10.0 mi South 5.8 mph - N/A   Mostly Cloudy
8:14 AM 68.0 °F 66.2 °F 94% 30.00 in 10.0 mi SE 3.5 mph - N/A   Clear
8:35 AM 68.2 °F 66.4 °F 94% 30.00 in 10.0 mi SSE 3.5 mph - N/A   Clear
8:54 AM 68.9 °F 66.7 °F 93% 30.00 in 10.0 mi ESE 3.5 mph - N/A   Clear
9:14 AM 69.8 °F 67.3 °F 92% 30.01 in 10.0 mi ESE 5.8 mph - N/A   Clear
9:34 AM 71.1 °F 67.8 °F 89% 30.02 in 10.0 mi SE 3.5 mph - N/A   Clear
9:54 AM 71.6 °F 68.0 °F 88% 30.02 in 10.0 mi Calm Calm - N/A   Scattered Clouds
10:15 AM 73.0 °F 68.9 °F 87% 30.02 in 10.0 mi Calm Calm - N/A   Overcast
10:34 AM 74.7 °F 69.8 °F 85% 30.02 in 10.0 mi West 4.6 mph - N/A   Overcast
10:54 AM 77.0 °F 70.3 °F 80% 30.02 in 10.0 mi West 5.8 mph - N/A   Mostly Cloudy
11:15 AM 76.5 °F 70.0 °F 80% 30.03 in 10.0 mi West 8.1 mph - N/A   Scattered Clouds
11:34 AM 76.3 °F 69.4 °F 79% 30.02 in 10.0 mi West 4.6 mph - N/A   Mostly Cloudy
11:54 AM 76.3 °F 68.7 °F 77% 30.02 in 10.0 mi NNW 4.6 mph - N/A   Scattered Clouds
12:14 PM 76.6 °F 68.7 °F 76% 30.02 in 10.0 mi NW 4.6 mph - N/A   Scattered Clouds
12:34 PM 76.3 °F 69.6 °F 80% 30.02 in 10.0 mi NW 5.8 mph - N/A   Scattered Clouds
12:54 PM 76.6 °F 70.3 °F 81% 30.02 in 10.0 mi NNW 8.1 mph - N/A   Clear
1:14 PM 75.7 °F 70.0 °F 82% 30.02 in 10.0 mi NNW 6.9 mph - N/A   Clear
1:34 PM 75.6 °F 69.6 °F 82% 30.03 in 10.0 mi NNW 6.9 mph - N/A   Clear
1:55 PM 75.2 °F 69.6 °F 83% 30.03 in 10.0 mi NNW 5.8 mph - N/A   Clear
2:14 PM 75.2 °F 69.1 °F 81% 30.03 in 10.0 mi North 6.9 mph - N/A   Clear
2:34 PM 76.3 °F 68.4 °F 76% 30.03 in 10.0 mi NNW 4.6 mph - N/A   Clear
2:55 PM 77.9 °F 68.4 °F 72% 30.02 in 10.0 mi NW 6.9 mph - N/A   Clear
3:14 PM 78.3 °F 68.0 °F 71% 30.03 in 10.0 mi NW 6.9 mph - N/A   Clear
3:34 PM 77.5 °F 68.0 °F 72% 30.02 in 10.0 mi WNW 6.9 mph - N/A   Clear
3:55 PM 77.9 °F 69.1 °F 74% 30.02 in 10.0 mi West 8.1 mph - N/A   Clear
4:14 PM 77.4 °F 67.5 °F 71% 30.02 in 10.0 mi WNW 5.8 mph - N/A   Clear
4:34 PM 78.3 °F 68.5 °F 72% 30.01 in 10.0 mi West 6.9 mph - N/A   Clear
4:55 PM 79.0 °F 68.0 °F 69% 30.01 in 10.0 mi West 3.5 mph - N/A   Clear
5:14 PM 79.0 °F 67.8 °F 69% 30.00 in 10.0 mi West 5.8 mph - N/A   Clear
5:34 PM 77.7 °F 68.0 °F 72% 30.00 in 10.0 mi WNW 4.6 mph - N/A   Clear
5:54 PM 78.1 °F 68.2 °F 71% 30.00 in 10.0 mi West 4.6 mph - N/A   Clear
6:14 PM 78.4 °F 67.8 °F 70% 30.00 in 10.0 mi West 4.6 mph - N/A   Clear
6:34 PM 77.7 °F 68.2 °F 72% 30.00 in 10.0 mi West 5.8 mph - N/A   Clear
6:54 PM 77.2 °F 69.3 °F 76% 30.01 in 10.0 mi West 6.9 mph - N/A   Clear
7:14 PM 77.2 °F 69.4 °F 77% 30.01 in 10.0 mi West 5.8 mph - N/A   Clear
7:34 PM 75.2 °F 69.3 °F 82% 30.00 in 10.0 mi West 5.8 mph - N/A   Clear
7:54 PM 76.1 °F 69.8 °F 81% 30.00 in 10.0 mi West 4.6 mph - N/A   Clear
8:14 PM 76.3 °F 70.0 °F 81% 30.00 in 10.0 mi WSW 3.5 mph - N/A   Clear
8:35 PM 75.7 °F 69.6 °F 81% 30.01 in 10.0 mi WSW 3.5 mph - N/A   Clear
9:14 PM 73.6 °F 69.3 °F 86% 30.01 in 10.0 mi Calm Calm - N/A   Clear
9:34 PM 72.7 °F 69.3 °F 89% 30.02 in 10.0 mi Calm Calm - N/A   Clear
9:54 PM 71.1 °F 68.7 °F 92% 30.02 in 10.0 mi SW 3.5 mph - N/A   Clear
10:14 PM 70.7 °F 68.5 °F 93% 30.02 in 10.0 mi WSW 3.5 mph - N/A   Clear
10:34 PM 70.7 °F 68.5 °F 93% 30.03 in 10.0 mi SW 3.5 mph - N/A   Clear
10:55 PM 70.5 °F 67.8 °F 91% 30.03 in 10.0 mi Calm Calm - N/A   Clear
11:14 PM 70.0 °F 68.0 °F 93% 30.02 in 7.0 mi Calm Calm - N/A   Scattered Clouds
11:34 PM 69.3 °F 67.6 °F 95% 30.02 in 7.0 mi Calm Calm - N/A   Scattered Clouds
11:54 PM 69.8 °F 68.4 °F 95% 30.02 in 7.0 mi Calm Calm - N/A   Scattered Clouds